Weather History for Imperial, NE

Change the Weather History Date:

Monday, January 13, 2014

  Actual Average Record
Temperature  
Mean Temperature 36 °F 28 °F  
Max Temperature 53 °F 41 °F 70 °F (1928)
Min Temperature 18 °F 15 °F -26 °F (1905)
Degree Days  
Heating Degree Days 29 37  
Month to date heating degree days 480 481  
Cooling Degree Days 0 0  
Month to date cooling degree days 0 0  
Year to date cooling degree days 0 0  
Moisture  
Dew Point 19 °F    
Average Humidity 49    
Maximum Humidity 74    
Minimum Humidity 24    
Precipitation  
Precipitation 0.00 in 0.01 in 0.20 in (1893)
Sea Level Pressure  
Sea Level Pressure 29.90 in    
Wind  
Wind Speed 15 mph (WNW)    
Max Wind Speed 30 mph    
Max Gust Speed 41 mph    
Visibility 10 miles    
Events      
T = Trace of Precipitation, MM = Missing Value Source: NWS Daily Summary

Daily Weather History Graph

Daily Weather History Graph

Search for Another Location

Airport:

Trip Planner

Search our weather history database for the weather conditions in past years. The results will help you decide how hot, cold, wet, or windy it might be!

Date:

Astronomy

Jan. 13, 2014 Rise Set
Actual Time 7:08 AM MST 4:42 PM MST
Civil Twilight 6:38 AM MST 5:12 PM MST
Nautical Twilight 6:04 AM MST 5:46 PM MST
Astronomical Twilight 5:31 AM MST 6:18 PM MST
Moon 2:59 PM MST (1/13) 4:58 AM MST (1/13)
Length of Visible Light 10h 33m
Length of Day
9h 33m
Waxing Gibbous, 95% of the Moon is Illuminated
Jan 13
Waxing Gibbous
Jan 15
Full
Jan 23
Last Quarter
Jan 30
New
Feb 6
First Quarter

Hourly Weather History & Observations

Time (MST) Temp. Windchill Dew Point Humidity Pressure Visibility Wind Dir Wind Speed Gust Speed Precip Events Conditions
12:53 AM 30.0 °F 20.0 °F 21.0 °F 69% 29.91 in 10.0 mi WNW 12.7 mph - N/A   Clear
1:53 AM 28.9 °F 19.2 °F 19.0 °F 67% 29.94 in 10.0 mi WNW 11.5 mph - N/A   Clear
2:53 AM 28.9 °F 18.2 °F 18.0 °F 64% 29.94 in 10.0 mi West 13.8 mph - N/A   Clear
3:53 AM 26.1 °F 15.6 °F 16.0 °F 66% 29.95 in 10.0 mi WNW 11.5 mph - N/A   Clear
4:53 AM 26.1 °F 16.2 °F 15.1 °F 63% 29.96 in 10.0 mi WNW 10.4 mph - N/A   Clear
5:53 AM 24.1 °F 14.4 °F 14.0 °F 65% 29.97 in 10.0 mi West 9.2 mph - N/A   Clear
6:53 AM 19.0 °F 8.2 °F 12.0 °F 74% 29.97 in 10.0 mi WSW 9.2 mph - N/A   Clear
7:53 AM 23.0 °F 11.7 °F 15.1 °F 72% 29.98 in 10.0 mi West 11.5 mph - N/A   Clear
8:53 AM 33.1 °F 23.9 °F 18.0 °F 54% 29.97 in 10.0 mi WSW 12.7 mph - N/A   Clear
9:53 AM 36.0 °F 28.5 °F 16.0 °F 44% 29.96 in 10.0 mi West 10.4 mph - N/A   Mostly Cloudy
10:53 AM 45.0 °F 37.6 °F 19.0 °F 36% 29.91 in 10.0 mi WNW 17.3 mph 26.5 mph N/A   Scattered Clouds
11:53 AM 51.1 °F - 19.0 °F 28% 29.86 in 10.0 mi WNW 23.0 mph 34.5 mph N/A   Mostly Cloudy
12:53 PM 52.0 °F - 18.0 °F 26% 29.82 in 10.0 mi WNW 26.5 mph 38.0 mph N/A   Clear
1:53 PM 51.1 °F - 18.0 °F 27% 29.84 in 10.0 mi WNW 16.1 mph 26.5 mph N/A   Overcast
2:53 PM 53.1 °F - 17.1 °F 24% 29.84 in 10.0 mi NW 17.3 mph 32.2 mph N/A   Mostly Cloudy
3:53 PM 52.0 °F - 19.0 °F 27% 29.85 in 10.0 mi WNW 18.4 mph 27.6 mph N/A   Scattered Clouds
4:17 PM 50.0 °F - 19.4 °F 30% 29.82 in 7.0 mi WNW 17.3 mph 26.5 mph N/A   Overcast
4:31 PM 50.0 °F - 19.4 °F 30% 29.82 in 8.0 mi WNW 16.1 mph 23.0 mph N/A   Overcast
4:53 PM 48.9 °F - 19.9 °F 32% 29.86 in 9.0 mi WNW 17.3 mph 24.2 mph N/A   Partly Cloudy
5:53 PM 48.0 °F - 21.0 °F 34% 29.86 in 10.0 mi WNW 18.4 mph 27.6 mph N/A   Scattered Clouds
6:53 PM 46.0 °F 39.0 °F 21.9 °F 39% 29.89 in 10.0 mi WNW 17.3 mph 26.5 mph N/A   Partly Cloudy
7:53 PM 44.1 °F 37.1 °F 21.0 °F 40% 29.90 in 10.0 mi WNW 15.0 mph 24.2 mph N/A   Clear
8:53 PM 42.1 °F 35.2 °F 21.0 °F 43% 29.90 in 10.0 mi WNW 12.7 mph - N/A   Scattered Clouds
9:53 PM 41.0 °F 34.3 °F 21.0 °F 45% 29.91 in 10.0 mi WNW 11.5 mph - N/A   Scattered Clouds
10:53 PM 41.0 °F 33.1 °F 21.9 °F 47% 29.92 in 10.0 mi WNW 15.0 mph - N/A   Scattered Clouds
11:53 PM 43.0 °F 35.1 °F 30.0 °F 60% 29.91 in 10.0 mi NW 17.3 mph 26.5 mph N/A   Overcast